Home   Weather   State College   Past weeks

Flag for USA Past Weather in State College, Pennsylvania, USA — Yesterday and Last 2 Weeks

Now
37 °F

Drizzle. Low clouds.


Feels Like: 28 °F
Forecast: 35 / 44 °F
Wind: 16 mph from Northeast

Location: University Park Airport

Current Time: Jan 23, 2017 at 2:05:12 pm

Latest Report: Jan 23, 2017 at 1:05 pm


Visibility: 5 mi

Pressure: 29.57 "Hg

Humidity: 93%

Dew Point: 36 °F

Location of State CollegeLocation

Past Weather in State College — Graph

°F

State College Temperature Yesterday

Maximum temperature yesterday: 45 °F (at 11:55 pm)
Minimum temperature yesterday: 39 °F (at 5:53 am)
Average temperature yesterday: 41 °F

High & Low Weather Summary for the Past Weeks

 TemperatureHumidityPressure
High61 °F (Jan 12, 3:53 pm)100% (Jan 11, 9:30 pm)30.65 "Hg (Jan 11, 9:30 pm)
Low7 °F (Jan 9, 2:55 am)41% (Jan 13, 2:53 pm)29.58 "Hg (Jan 23, 12:53 pm)
Average33 °F84%30.12 "Hg
* Reported Jan 8 12:53 pm — Jan 23 12:53 pm, State College, Weather by CustomWeather, © 2017

Note: Actual official high and low records may vary slightly from our data, if they occured in-between our weather recording intervals... More about our weather records

Advertising

State College Weather History for the Previous 24 Hours

Scroll right to see more
 ConditionsComfort  
Time TempWeatherWind HumidityBarometerVisibility
12:53 pm
Mon, Jan 23
37 °FDrizzle. Overcast.16 mph93%29.58 "Hg5 mi
12:10 pm37 °FLight rain. Low clouds.16 mph93%29.60 "Hg2 mi
11:53 am37 °FLight rain. More clouds than sun.16 mph93%29.61 "Hg3 mi
10:53 am37 °FLight rain. Mostly cloudy.14 mph100%29.64 "Hg5 mi
9:53 am39 °FLight rain. Mostly cloudy.13 mph93%29.66 "Hg7 mi
8:53 am39 °FLight rain. Mostly cloudy.12 mph93%29.66 "Hg7 mi
7:53 am41 °FRain. Overcast.9 mph87%29.64 "Hg7 mi
6:53 am41 °FRain. Overcast.14 mph93%29.64 "Hg7 mi
5:53 am43 °FOvercast.10 mph93%29.64 "Hg10 mi
5:15 am43 °FOvercast.9 mph97%29.64 "Hg10 mi
4:55 am43 °FOvercast.8 mph98%29.65 "Hg10 mi
4:15 am44 °FMostly cloudy.9 mph97%29.66 "Hg10 mi
3:55 am44 °FOvercast.12 mph97%29.66 "Hg10 mi
3:15 am44 °FFog.12 mph99%29.66 "Hg5 mi
2:55 am44 °FFog.14 mph100%29.67 "Hg5 mi
2:15 am45 °FFog.12 mph100%29.66 "Hg4 mi
1:55 am45 °FFog.6 mph100%29.66 "Hg4 mi
1:15 am46 °FFog.10 mph100%29.65 "Hg5 mi
12:35 am45 °FLight rain. Mostly cloudy.6 mph100%29.66 "Hg2 mi
11:55 pm
Sun, Jan 22
45 °FDrizzle. Mostly cloudy.7 mph100%29.66 "Hg3 mi
11:15 pm44 °FDrizzle. Low clouds.8 mph100%29.66 "Hg2 mi
10:55 pm43 °FFog.8 mph100%29.66 "Hg2 mi
10:35 pm43 °FFog.5 mph100%29.67 "Hg2 mi
9:10 pm41 °FFog.No wind100%29.68 "Hg1 mi
8:53 pm41 °FFog.No wind100%29.68 "Hg0 mi
7:53 pm41 °FFog.No wind100%29.67 "Hg0 mi
6:53 pm41 °FFog.No wind100%29.68 "Hg0 mi
5:53 pm41 °FFog.No wind100%29.64 "Hg0 mi
4:53 pm43 °FFog.No wind100%29.64 "Hg0 mi
4:30 pm43 °FFog.No wind100%29.64 "Hg0 mi
3:53 pm43 °FFog.No wind100%29.65 "Hg1 mi
3:20 pm43 °FFog.No wind100%29.66 "Hg1 mi
Weather by CustomWeather, © 2017

See weather overviewHow to use our weather pages